Location: Sternwarte ZA, Rosenfeld-Brittheim
(48.2889°N, 8.6789°E)
Time: 03:54:14
(UTC+02:00)

ISS - Pass Details

Date: 24 May 2017
Orbit: 401 x 408 km, 51.6° (Epoch: 25 June)

Event Time Altitude Azimuth Distance (km) Brightness Sun altitude
Rises 21:47:43 0° 199° (SSW) 2,327 -0.2 -5.9°
Reaches altitude 10° 21:50:21 10° 177° (S) 1,470 -1.4 -6.2°
Maximum altitude 21:52:27 16° 137° (SE) 1,165 -2.2 -6.5°
Drops below altitude 10° 21:54:33 10° 98° (E) 1,474 -1.5 -6.7°
Sets 21:57:12 0° 75° (ENE) 2,338 -0.3 -7.0°
